User: anonymous   Login
Location: �chenoz-la-M�line
(47.6009°N, 6.1354°E)
Time: 03:42:55
(UTC+00:00)
Language:

USA 238 - Orbit

View from above orbital plane
View from above orbital plane
View from above satellite
View from above satellite

Ground track
Ground track

The orbit data is extracted from the following two-line orbital elements,

1 38758U 12048A   21091.90077919 0.00000000  00000-0  00000-0 0    04
2 38758  63.4359  17.0553 0149787 359.8907   0.1093 13.40820348    07
Epoch (UTC): 01 April 2021 21:37:07
Eccentricity: 0.0149787
inclination: 63.4359°
perigee height: 994 km
apogee height: 1218 km
right ascension of ascending node: 17.0553°
argument of perigee: 359.8907°
revolutions per day: 13.40820348
mean anomaly at epoch: 0.1093°
orbit number at epoch: 0

The dashed part of the orbit path shows where the satellite is in the earth's shadow,  

DLR